JILIN-01 GAOFEN 3D 27 (52444 NORAD) Tracking and Keplerian Element Data
This shows tracking and keplerian element data for the satellite.
Feedback or suggestion? Click here.
Element | Value |
Catalog | 52444 |
Name | JILIN-01 GAOFEN 3D 27 |
Epoch Orbit | 632 |
Epoch Day | 166.948022 |
Epoch Year | 2022 |
RAAN | 231.6107 |
Inclination | 97.6817 |
Eccentricity | 0.0015701 |
Argument of Perigee | 123.3219 |
Mean Anonmoly | 49.2655 |
Mean Motion | 15.09535139 |
Decay Rate | 4.377E-05 |
L1 | 1 52444U 22048B 22166.94802200 .00004377 00000+0 27617-3 0 9993 |
L2 | 2 52444 97.6817 231.6107 0015701 123.3219 49.2655 15.09535139 6327 |
Live tracking and technical data element details for JILIN-01 GAOFEN 3D 27 (NORAD 52444). JILIN-01 GAOFEN 3D 27 can be tracked NOW for your location showing map with azimuth and elevation plus other details from your city location.
Track the satellite on the map from your city or location and see movement details for azimuth, elevation, latitude, longitude, range, height, and movement on the map or in text.
IsCatalogInMostPopularTable: catalog: 52444, numindb: 10
Update: records affected: 1
GetName: 52444 JILIN-01 GAOFEN 3D 27
Hit Count: updated at: Sat, 25 Jun 2022 04:52:49 GMT